[[{"header":{"parameterUnit":"m.s-1","parameterCategory":1,"la1":30.2991,"la2":30.254,"lo1":-89.0895,"lo2":-89.0444,"dy":0.0017,"dx":0.0017,"nx":28,"ny":28,"refTime":"2024-06-18T09:00:00:Z","depth":0,"parameterNumber":2,"parameterNumberName":"U-component_of_WINDS"},"data":[0,0,0,0,0,0,0,0,0,0,0,0,0,0,0,0,0,0,0,0,0,0,0,0,0,0,0,0,0,0,0,0,0,0,0,0,0,0,0,0,0,0,0,0,0,0,0,0,0,0,0,0,0,0,0,0,0,0,-10.0226,-10.0226,0,-10.0273,-10.0273,-10.0274,-10.0091,-10.0085,-10.008,-10.0075,-10.012,-10.0126,-10.0133,0,0,0,0,0,0,0,0,0,0,0,0,0,-9.9975,-9.998,-10.0226,-10.0226,-10.0227,-10.0273,-10.0273,-10.0274,-10.0091,-10.0085,-10.0078,-10.0072,-10.0118,-10.0126,-10.0133,0,0,0,0,0,0,0,0,0,0,0,0,0,-10.0059,-9.9982,-10.0225,-10.0141,-10.0134,-10.0273,-10.0273,-10.0274,-10.0093,-10.0085,-10.0077,-10.0069,-10.0116,-10.0125,-10.0134,-10.0355,0,0,-10.0163,-10.0167,0,0,0,0,0,0,0,0,-10.0054,-10.0068,-10.0153,-10.0147,-10.014,-10.0167,-10.0201,-10.0301,-10.0095,-10.0109,-10.0074,-10.0065,-10.0142,-10.0149,-10.0176,-10.0357,-10.0359,-10.0164,-10.017,-10.0174,-10.0176,0,0,0,0,0,0,0,-10.0049,-10.0065,-10.0244,-10.0155,-10.0146,-10.01,-10.0103,-10.0219,-10.017,-10.0107,-10.0094,-10.0102,-10.0137,-10.0167,-10.0175,-10.036,-10.0164,-10.0172,-10.0178,-10.0181,-10.0723,-10.0731,0,0,0,0,0,0,-10.0054,-10.0062,-10.0242,-10.0245,-10.0076,-10.0111,-10.0115,-10.0167,-10.0169,-10.0161,-10.0109,-10.0093,-10.0155,-10.0165,-10.0176,-10.0433,-10.0174,-10.0182,-10.0188,-10.0714,-10.0725,-10.0734,0,0,0,0,0,0,-10.005,-10.0072,-10.0241,-10.015,-10.0168,-10.0124,-10.0184,-10.0172,-10.0201,-10.017,-10.016,-10.0148,-10.0149,-10.0163,-10.0312,-10.0432,-10.0187,-10.0195,-10.0704,-10.0717,-10.0729,-10.0949,0,0,0,0,0,0,-10.0043,-10.0072,-10.0156,-10.0153,-10.0174,-10.0377,-10.0192,-10.0179,-10.0219,-10.0199,-10.0205,-10.0198,-10.0144,-10.0299,-10.0321,-10.044,-10.0202,-10.0693,-10.071,-10.0725,-10.0931,-10.0968,-10.1,0,0,0,0,0,-10.0035,-10.0216,-10.0161,-10.0184,-10.0278,-10.0384,-10.0395,-10.033,-10.0229,-10.0312,-10.0292,-10.0198,-10.0416,-10.0315,-10.0339,-10.0463,-10.0685,-10.0705,-10.0724,-10.0915,-10.0961,-10.0999,0,0,0,0,0,0,-10.0232,-10.0214,-10.0153,-10.0338,-10.0364,-10.0353,-10.0456,-10.038,-10.0435,-10.0413,-10.0329,-10.0332,-10.0495,-10.0494,-10.0383,-10.0676,-10.0533,-10.0558,-10.067,-10.0713,-10.0747,-10.0742,-10.021,0,0,0,0,0,-10.0298,-10.0386,-10.0365,-10.0531,-10.0547,-10.05,-10.0544,-10.0491,-10.0514,-10.0524,-10.0514,-10.054,-10.0613,-10.0664,-10.073,-10.0931,-10.0928,-10.1028,-10.1063,-10.1091,-10.1113,-10.1217,-10.126,-10.0799,-10.0798,-10.0798,0,0,-10.0433,-10.0434,-10.0495,-10.057,-10.0584,-10.0676,-10.051,-10.0615,-10.0682,-10.0539,-10.0678,-10.0673,-10.0696,-10.0871,-10.0948,-10.0875,-10.1241,-10.1116,-10.1139,-10.1145,-10.1242,-10.1286,-10.1325,-10.0812,-10.081,-10.0807,0,0,-10.0726,-10.0737,-10.0875,-10.0893,-10.0916,-10.0884,-10.0917,-10.0918,-10.0909,-10.1048,-10.0942,-10.1021,-10.115,-10.117,-10.1197,-10.1499,-10.1413,-10.1523,-10.1703,-10.1805,-10.1842,-10.1873,-10.1978,-10.2017,-10.1546,-10.1547,-10.1547,0,-10.089,-10.1026,-10.0955,-10.1067,-10.1103,-10.098,-10.1118,-10.1138,-10.1182,-10.1209,-10.1128,-10.1287,-10.1294,-10.1471,-10.1545,-10.1572,-10.1606,-10.152,-10.1842,-10.1873,-10.1902,-10.2001,-10.2041,-10.1559,-10.1558,-10.1557,-10.1555,0,-10.1226,-10.1322,-10.1431,-10.1477,-10.1525,-10.165,-10.1597,-10.1655,-10.1599,-10.1575,-10.1717,-10.1721,-10.1785,-10.1824,-10.1771,-10.1994,-10.1948,-10.1857,-10.171,-10.196,-10.2052,-10.2089,-10.1578,-10.1573,-10.157,-10.1566,0,0,-10.1642,-10.1648,-10.1689,-10.1708,-10.1725,-10.1797,-10.1917,-10.1981,-10.203,-10.2066,-10.2162,-10.2275,-10.219,-10.2221,-10.2169,-10.226,-10.2495,-10.2156,-10.2155,-10.2216,-10.2739,-10.2806,-10.2851,-10.244,-10.2447,-10.2453,-10.2736,0,-10.1927,-10.2131,-10.2071,-10.2276,-10.2362,-10.2247,-10.235,-10.2372,-10.2354,-10.2423,-10.2402,-10.2483,-10.2366,-10.2384,-10.2469,-10.2449,-10.2599,-10.2428,-10.2527,-10.2531,-10.2521,-10.2899,-10.297,-10.3237,-10.2772,-10.2778,-10.2782,0,-10.2286,-10.2336,-10.255,-10.2552,-10.2586,-10.268,-10.2733,-10.2802,-10.2824,-10.2804,-10.284,-10.2769,-10.2885,-10.2741,-10.2898,-10.2783,-10.2821,-10.2817,-10.2826,-10.283,-10.2669,-10.291,-10.3321,-10.336,-10.2839,-10.2834,-10.283,0,-10.2565,-10.2685,-10.2828,-10.2848,-10.2855,-10.2924,-10.293,-10.2944,-10.2986,-10.3032,-10.3058,-10.3118,-10.315,-10.3198,-10.3144,-10.3045,-10.3309,-10.3161,-10.3294,-10.3295,-10.3351,-10.3348,-10.3771,-10.3382,-10.3381,-10.3381,-10.338,0,-10.2887,-10.3022,-10.2953,-10.304,-10.3187,-10.3117,-10.3264,-10.3257,-10.3271,-10.3353,-10.3259,-10.3338,-10.3265,-10.3338,-10.3297,-10.3432,-10.3448,-10.3434,-10.3421,-10.3441,-10.3442,-10.3461,-10.344,-10.3391,-10.3389,-10.3387,-10.3385,0,-10.3221,-10.3181,-10.3328,-10.3324,-10.3326,-10.3434,-10.3429,-10.3509,-10.3484,-10.3591,-10.3611,-10.3573,-10.3654,-10.3606,-10.3689,-10.3662,-10.3836,-10.38,-10.3829,-10.3818,-10.3952,-10.3939,-10.4399,-10.4454,-10.4034,-10.4038,-10.4041,0,-10.3428,-10.3529,-10.3535,-10.3584,-10.3597,-10.3678,-10.372,-10.3656,-10.3704,-10.3737,-10.3813,-10.3886,-10.394,-10.4075,-10.4053,-10.4116,-10.4078,-10.4235,-10.4086,-10.4102,-10.4076,-10.407,-10.4078,-10.4264,-10.4269,-10.4273,-10.4276,0,-10.3799,-10.3774,-10.3839,-10.3899,-10.3952,-10.3995,-10.403,-10.4076,-10.4012,-10.407,-10.4152,-10.4195,-10.428,-10.4353,-10.4406,-10.4411,-10.4333,-10.4324,-10.4357,-10.4376,-10.4388,-10.438,-10.3907,-10.4312,-10.4309,-10.4306,-10.4304,-10.4302,-10.4073,-10.4156,-10.4174,-10.4249,-10.4269,-10.4305,-10.4379,-10.4365,-10.4432,-10.4496,-10.4454,-10.4551,-10.4569,-10.4633,-10.4648,-10.4721,-10.4658,-10.4707,-10.4719,-10.4731,-10.4748,-10.438,-10.4731,-10.473,-10.4729,-10.4728,-10.4728,0,-10.4435,-10.4441,-10.4512,-10.4564,-10.4624,-10.4548,-10.4583,-10.4637,-10.4723,-10.4748,-10.4804,-10.4898,-10.4968,-10.4953,-10.5017,-10.5078,-10.5044,-10.5097,-10.509,-10.5091,-10.4803,-10.4766,-10.5123,-10.5123,-10.5123,-10.5123,-10.5123,-10.5123,-10.4631,-10.4767,-10.4745,-10.489,-10.4894,-10.4988,-10.5015,-10.5046,-10.5065,-10.5174,-10.5233,-10.5223,-10.5231,-10.5295,-10.5356,-10.5349,-10.5375,-10.5441,-10.5422,-10.5151,-10.5112,-10.5075,-10.5039,-10.5449,-10.5449,-10.5703,-10.5706,-10.5708]},{"header":{"parameterUnit":"m.s-1","parameterCategory":1,"la1":30.2991,"la2":30.254,"lo1":-89.0895,"lo2":-89.0444,"dy":0.0017,"dx":0.0017,"nx":28,"ny":28,"refTime":"2024-06-18T09:00:00:Z","depth":0,"parameterNumber":3,"parameterNumberName":"V-component_of_WINDS"},"data":[0,0,0,0,0,0,0,0,0,0,0,0,0,0,0,0,0,0,0,0,0,0,0,0,0,0,0,0,0,0,0,0,0,0,0,0,0,0,0,0,0,0,0,0,0,0,0,0,0,0,0,0,0,0,0,0,0,0,1.3692,1.3692,0,1.3733,1.3733,1.3733,1.3776,1.3777,1.3777,1.3778,1.3816,1.3816,1.3816,0,0,0,0,0,0,0,0,0,0,0,0,0,1.3648,1.3649,1.3692,1.3692,1.3693,1.3732,1.3733,1.3734,1.3776,1.3777,1.3778,1.3778,1.3815,1.3816,1.3816,0,0,0,0,0,0,0,0,0,0,0,0,0,1.3676,1.3649,1.3691,1.3719,1.3722,1.3732,1.3733,1.3734,1.3776,1.3777,1.3778,1.3779,1.3815,1.3816,1.3817,1.3802,0,0,1.3819,1.3819,0,0,0,0,0,0,0,0,1.3674,1.3677,1.3714,1.3717,1.372,1.375,1.3732,1.3757,1.3776,1.3755,1.3778,1.3779,1.3793,1.3795,1.3801,1.3804,1.3806,1.3819,1.3819,1.3819,1.3819,0,0,0,0,0,0,0,1.3672,1.3676,1.3708,1.3715,1.3718,1.3728,1.3733,1.3736,1.3768,1.3757,1.376,1.3765,1.3795,1.38,1.3802,1.3806,1.3819,1.3819,1.382,1.382,1.3802,1.3802,0,0,0,0,0,0,1.3666,1.3674,1.3706,1.3709,1.3699,1.3728,1.3734,1.374,1.3768,1.3774,1.3764,1.3767,1.3799,1.3801,1.3804,1.379,1.3819,1.382,1.382,1.3803,1.3802,1.3801,0,0,0,0,0,0,1.3665,1.3669,1.3705,1.3692,1.3698,1.3728,1.3734,1.374,1.3746,1.3774,1.3779,1.3764,1.3799,1.3803,1.3803,1.3792,1.382,1.3821,1.3804,1.3803,1.3802,1.3763,0,0,0,0,0,0,1.3664,1.3668,1.3663,1.3692,1.3698,1.3704,1.3734,1.374,1.3747,1.3751,1.3775,1.378,1.38,1.3802,1.3804,1.3794,1.3821,1.3805,1.3804,1.3802,1.3765,1.376,1.3756,0,0,0,0,0,1.3662,1.3649,1.3663,1.3667,1.3693,1.3703,1.3707,1.3732,1.3746,1.3741,1.376,1.3779,1.3793,1.3802,1.3804,1.3794,1.3806,1.3804,1.3802,1.3767,1.3761,1.3756,0,0,0,0,0,0,1.3617,1.3654,1.3669,1.3665,1.3681,1.3711,1.3705,1.3724,1.3735,1.3738,1.3768,1.3773,1.377,1.3782,1.3791,1.3783,1.3803,1.3801,1.3775,1.377,1.3765,1.3762,1.3822,0,0,0,0,0,1.3607,1.3613,1.3645,1.3638,1.3646,1.3674,1.368,1.3698,1.3715,1.3721,1.3739,1.3754,1.3762,1.3767,1.3775,1.3767,1.3774,1.3762,1.3757,1.3753,1.3751,1.3749,1.3745,1.3795,1.3795,1.3795,0,0,1.3585,1.3606,1.3608,1.363,1.3644,1.365,1.3679,1.3683,1.3688,1.3721,1.3724,1.3738,1.3756,1.3753,1.3752,1.3763,1.3739,1.3751,1.3748,1.3748,1.3747,1.3742,1.3738,1.3794,1.3794,1.3794,0,0,1.3549,1.3566,1.3563,1.3578,1.36,1.362,1.3619,1.3646,1.3658,1.3661,1.3687,1.3692,1.3705,1.3717,1.3725,1.3697,1.3715,1.3699,1.3675,1.3673,1.3669,1.3666,1.3656,1.3652,1.3697,1.3697,1.3697,0,1.3519,1.353,1.3559,1.3562,1.3571,1.3605,1.3602,1.3615,1.3638,1.3643,1.3655,1.3674,1.3688,1.3689,1.3682,1.3688,1.3688,1.3696,1.3667,1.3664,1.3662,1.3653,1.3649,1.3695,1.3695,1.3695,1.3696,0,1.3492,1.3499,1.3494,1.3519,1.3527,1.3527,1.3556,1.3561,1.358,1.3598,1.3601,1.362,1.3635,1.3636,1.3653,1.364,1.3646,1.3662,1.3682,1.3654,1.3646,1.3643,1.3692,1.3693,1.3693,1.3694,0,0,1.3427,1.347,1.3467,1.3479,1.3508,1.3513,1.3515,1.3531,1.3535,1.3551,1.3553,1.3565,1.3581,1.359,1.3609,1.3607,1.3584,1.3624,1.3624,1.3616,1.3572,1.3559,1.3555,1.3597,1.3597,1.3596,1.3571,0,1.3396,1.3403,1.3431,1.343,1.3437,1.347,1.3472,1.3489,1.3507,1.3515,1.3534,1.3542,1.3562,1.3568,1.3568,1.3587,1.3576,1.3589,1.3599,1.3599,1.3593,1.3551,1.3537,1.3512,1.3568,1.3567,1.3567,0,1.336,1.3376,1.3376,1.3407,1.341,1.3412,1.343,1.3437,1.3458,1.3471,1.3482,1.3504,1.3508,1.3528,1.3534,1.3543,1.3548,1.3559,1.3558,1.356,1.3581,1.3551,1.3505,1.3501,1.3562,1.3563,1.3563,0,1.3314,1.3335,1.3338,1.3347,1.3382,1.3383,1.3397,1.3419,1.3427,1.3442,1.3448,1.3463,1.347,1.3481,1.3506,1.3518,1.351,1.3531,1.352,1.352,1.3516,1.3516,1.347,1.352,1.352,1.352,1.352,0,1.3276,1.3275,1.3318,1.332,1.332,1.3352,1.335,1.3368,1.3387,1.3393,1.3422,1.3426,1.3459,1.3467,1.3487,1.349,1.3493,1.3503,1.3508,1.35,1.3499,1.3504,1.3507,1.3519,1.352,1.352,1.352,0,1.3223,1.3252,1.3258,1.3292,1.33,1.3299,1.3327,1.333,1.3351,1.3358,1.3361,1.3392,1.3403,1.343,1.3448,1.3461,1.3459,1.3468,1.3452,1.3455,1.3443,1.3444,1.3398,1.3394,1.3447,1.3446,1.3446,0,1.3197,1.3198,1.3232,1.3239,1.3253,1.3263,1.3273,1.3304,1.3313,1.3338,1.3338,1.3352,1.3365,1.3381,1.3405,1.3419,1.3429,1.3412,1.3431,1.3424,1.3429,1.3429,1.343,1.3408,1.3407,1.3407,1.3406,0,1.3149,1.3164,1.3177,1.3196,1.3207,1.3222,1.3239,1.3243,1.3279,1.3287,1.33,1.331,1.333,1.3344,1.3362,1.3376,1.3397,1.34,1.3399,1.339,1.3381,1.3387,1.3441,1.3401,1.3401,1.3402,1.3402,1.3402,1.3109,1.3112,1.3137,1.3151,1.3168,1.3184,1.3189,1.3211,1.3223,1.3243,1.3261,1.3272,1.3294,1.3321,1.3334,1.3343,1.3354,1.3351,1.335,1.3349,1.3346,1.338,1.3347,1.3347,1.3347,1.3347,1.3347,0,1.3062,1.3081,1.3094,1.3118,1.313,1.3151,1.3171,1.3179,1.3189,1.3209,1.3222,1.3238,1.3252,1.3277,1.3293,1.3296,1.3306,1.3299,1.3299,1.3302,1.3335,1.3336,1.3291,1.3291,1.3291,1.3291,1.3291,1.3291,1.3039,1.3045,1.3063,1.3078,1.3097,1.311,1.312,1.3135,1.3151,1.3167,1.318,1.3197,1.322,1.3238,1.3252,1.3259,1.3263,1.3253,1.3263,1.3294,1.3299,1.3304,1.3305,1.3254,1.3254,1.3229,1.3229,1.3229]}]]